Torna al catalogo

O3B MPOWER F10

AttivoComunicazioniMEO
NORAD 64867·PAYLOAD·🇱🇺 Luxembourg

Lanciato Jul 22, 2025 da Cape Canaveral Space Force Station

Loading…

Prossimi Passaggi (prossime 24 ore)

TLE

AggiornatoSource: CelesTrak SupGP

Epoca: Sep 14, 2026, 19:59 UTC

1 64867C 25153B   26257.83333333  .00000000  00000+0  00000+0 0  2573
2 64867   0.0624 355.8176 0004596 271.6713 345.2868  5.00114993    10

Traccia O3B MPOWER F10 in tempo reale con AllMySat

Download on the App Store